| time (UTC) | temp C | wind direction | speed KPH | gust KPH | rain 1hr cm | rain 24hr cm | rain mn cm | humidity % | barometer mb |
| 20260510184509 | 15 | 226 | 1.6 | 3.2 | 0.00 | 0.00 | 0.00 | 88 | 1025.6 |
| 20260510184227 | 15 | 226 | 0.0 | 4.8 | 0.00 | 0.00 | 0.00 | 88 | 1025.6 |
| 20260510183500 | 15 | 226 | 1.6 | 3.2 | 0.00 | 0.00 | 0.00 | 88 | 1025.5 |
| 20260510182944 | 15 | 226 | 1.6 | 4.8 | 0.00 | 0.00 | 0.00 | 88 | 1025.4 |
| 20260510182633 | 16 | 215 | 1.6 | 8.0 | 0.00 | 0.00 | 0.00 | 89 | 1025.2 |
| 20260510182122 | 16 | 215 | 3.2 | 8.0 | 0.00 | 0.00 | 0.00 | 89 | 1025.2 |
| 20260510181402 | 15 | 215 | 3.2 | 9.7 | 0.00 | 0.00 | 0.00 | 89 | 1025.1 |
| 20260510180841 | 15 | 208 | 3.2 | 9.7 | 0.00 | 0.00 | 0.00 | 89 | 1025.2 |
| 20260510180313 | 15 | 211 | 1.6 | 6.4 | 0.00 | 0.00 | 0.00 | 89 | 1025.2 |
| 20260510180007 | 15 | 218 | 1.6 | 6.4 | 0.00 | 0.00 | 0.00 | 88 | 1025.3 |
| 20260510175232 | 15 | 218 | 1.6 | 6.4 | 0.00 | 0.00 | 0.00 | 88 | 1025.3 |
| 20260510174736 | 15 | 216 | 3.2 | 8.0 | 0.00 | 0.00 | 0.00 | 88 | 1025.3 |
| 20260510174209 | 15 | 216 | 3.2 | 8.0 | 0.00 | 0.00 | 0.00 | 89 | 1025.3 |
| 20260510173652 | 15 | 166 | 3.2 | 8.0 | 0.00 | 0.00 | 0.00 | 88 | 1025.3 |
| 20260510173156 | 15 | 192 | 3.2 | 6.4 | 0.00 | 0.00 | 0.00 | 88 | 1025.4 |
| 20260510172703 | 15 | 155 | 3.2 | 6.4 | 0.00 | 0.00 | 0.00 | 88 | 1025.4 |
| 20260510172147 | 15 | 146 | 1.6 | 4.8 | 0.00 | 0.00 | 0.00 | 88 | 1025.4 |
| 20260510171646 | 15 | 145 | 1.6 | 4.8 | 0.00 | 0.00 | 0.00 | 88 | 1025.5 |
| 20260510171153 | 15 | 145 | 1.6 | 4.8 | 0.00 | 0.00 | 0.00 | 87 | 1025.5 |
| 20260510170646 | 15 | 145 | 1.6 | 4.8 | 0.00 | 0.00 | 0.00 | 87 | 1025.6 |
| 20260510170125 | 16 | 145 | 1.6 | 4.8 | 0.00 | 0.00 | 0.00 | 87 | 1025.7 |
| 20260510165612 | 16 | 145 | 0.0 | 4.8 | 0.00 | 0.00 | 0.00 | 87 | 1025.7 |
| 20260510165123 | 16 | 145 | 0.0 | 4.8 | 0.00 | 0.00 | 0.00 | 87 | 1025.8 |
| 20260510165105 | 16 | 145 | 0.0 | 4.8 | 0.00 | 0.00 | 0.00 | 86 | 1025.9 |
| 20260510164110 | 16 | 145 | 0.0 | 3.2 | 0.00 | 0.00 | 0.00 | 86 | 1025.9 |
| 20260510163609 | 16 | 146 | 0.0 | 1.6 | 0.00 | 0.00 | 0.00 | 86 | 1025.9 |
| 20260510163033 | 16 | 146 | 0.0 | 1.6 | 0.00 | 0.00 | 0.00 | 86 | 1026.0 |
| 20260510162539 | 16 | 146 | 0.0 | 3.2 | 0.00 | 0.00 | 0.00 | 86 | 1025.9 |
| 20260510162238 | 16 | 145 | 0.0 | 3.2 | 0.00 | 0.00 | 0.00 | 86 | 1025.9 |
| 20260510161511 | 16 | 146 | 0.0 | 0.0 | 0.00 | 0.00 | 0.00 | 86 | 1026.0 |
| 20260510160953 | 16 | 146 | 0.0 | 0.0 | 0.00 | 0.00 | 0.00 | 86 | 1025.9 |
| 20260510160711 | 16 | 145 | 0.0 | 0.0 | 0.00 | 0.00 | 0.00 | 86 | 1026.0 |
| 20260510155956 | 16 | 146 | 0.0 | 1.6 | 0.00 | 0.00 | 0.00 | 86 | 1026.0 |
| 20260510155448 | 16 | 146 | 0.0 | 1.6 | 0.00 | 0.00 | 0.00 | 86 | 1026.1 |
| 20260510154947 | 16 | 145 | 0.0 | 1.6 | 0.00 | 0.00 | 0.00 | 86 | 1026.1 |
| 20260510154436 | 16 | 146 | 0.0 | 1.6 | 0.00 | 0.00 | 0.00 | 87 | 1026.1 |
| 20260510153951 | 17 | 145 | 0.0 | 1.6 | 0.00 | 0.00 | 0.00 | 87 | 1026.1 |
| 20260510153438 | 17 | 146 | 0.0 | 1.6 | 0.00 | 0.00 | 0.00 | 87 | 1026.2 |
| 20260510152933 | 17 | 145 | 0.0 | 0.0 | 0.00 | 0.00 | 0.00 | 87 | 1026.3 |
| 20260510152628 | 17 | 145 | 0.0 | 3.2 | 0.00 | 0.00 | 0.00 | 87 | 1026.3 |
| 20260510151905 | 17 | 145 | 0.0 | 3.2 | 0.00 | 0.00 | 0.00 | 87 | 1026.3 |
| 20260510151622 | 17 | 145 | 0.0 | 3.2 | 0.00 | 0.00 | 0.00 | 87 | 1026.4 |
| 20260510150905 | 17 | 145 | 0.0 | 3.2 | 0.00 | 0.00 | 0.00 | 87 | 1026.4 |
| 20260510150356 | 17 | 145 | 0.0 | 3.2 | 0.00 | 0.00 | 0.00 | 88 | 1026.4 |
| 20260510145850 | 17 | 129 | 0.0 | 0.0 | 0.00 | 0.00 | 0.00 | 88 | 1026.4 |
| 20260510145350 | 17 | 129 | 0.0 | 0.0 | 0.00 | 0.00 | 0.00 | 88 | 1026.5 |
| 20260510144854 | 17 | 129 | 0.0 | 1.6 | 0.00 | 0.00 | 0.00 | 88 | 1026.5 |
| 20260510144338 | 17 | 129 | 0.0 | 4.8 | 0.00 | 0.00 | 0.00 | 88 | 1026.7 |
| 20260510143838 | 17 | 129 | 0.0 | 4.8 | 0.00 | 0.00 | 0.00 | 87 | 1026.7 |
| 20260510143340 | 17 | 158 | 0.0 | 3.2 | 0.00 | 0.00 | 0.00 | 86 | 1026.6 |
| 20260510142820 | 17 | 158 | 0.0 | 3.2 | 0.00 | 0.00 | 0.00 | 86 | 1026.5 |
| 20260510142321 | 17 | 158 | 0.0 | 3.2 | 0.00 | 0.00 | 0.00 | 86 | 1026.5 |
| 20260510141807 | 17 | 158 | 0.0 | 3.2 | 0.00 | 0.00 | 0.00 | 86 | 1026.4 |
| 20260510141255 | 17 | 158 | 0.0 | 3.2 | 0.00 | 0.00 | 0.00 | 85 | 1026.4 |
| 20260510140759 | 17 | 158 | 0.0 | 3.2 | 0.00 | 0.00 | 0.00 | 85 | 1026.4 |
| 20260510140227 | 17 | 158 | 0.0 | 3.2 | 0.00 | 0.00 | 0.00 | 85 | 1026.5 |
| 20260510135726 | 17 | 158 | 0.0 | 0.0 | 0.00 | 0.00 | 0.00 | 85 | 1026.5 |
| 20260510135216 | 18 | 158 | 0.0 | 0.0 | 0.00 | 0.00 | 0.00 | 85 | 1026.5 |
| 20260510134717 | 18 | 158 | 0.0 | 0.0 | 0.00 | 0.00 | 0.00 | 85 | 1026.5 |
| 20260510134222 | 18 | 158 | 0.0 | 0.0 | 0.00 | 0.00 | 0.00 | 85 | 1026.5 |
| 20260510133708 | 18 | 158 | 0.0 | 0.0 | 0.00 | 0.00 | 0.00 | 85 | 1026.5 |
| 20260510133210 | 18 | 158 | 0.0 | 0.0 | 0.00 | 0.00 | 0.00 | 85 | 1026.5 |
| 20260510132706 | 18 | 158 | 0.0 | 0.0 | 0.00 | 0.00 | 0.00 | 85 | 1026.5 |
| 20260510132205 | 18 | 158 | 0.0 | 0.0 | 0.00 | 0.00 | 0.00 | 84 | 1026.5 |
| 20260510131940 | 18 | 158 | 0.0 | 0.0 | 0.00 | 0.00 | 0.00 | 84 | 1026.5 |
| 20260510131204 | 18 | 158 | 0.0 | 3.2 | 0.00 | 0.00 | 0.00 | 84 | 1026.6 |
| 20260510130707 | 18 | 158 | 0.0 | 3.2 | 0.00 | 0.00 | 0.00 | 83 | 1026.8 |
| 20260510130207 | 18 | 158 | 1.6 | 3.2 | 0.00 | 0.00 | 0.00 | 83 | 1026.8 |
| 20260510125717 | 18 | 158 | 3.2 | 6.4 | 0.00 | 0.00 | 0.00 | 83 | 1026.8 |
| 20260510125200 | 18 | 158 | 3.2 | 6.4 | 0.00 | 0.00 | 0.00 | 82 | 1027.0 |
| 20260510124703 | 18 | 192 | 3.2 | 6.4 | 0.00 | 0.00 | 0.00 | 81 | 1027.0 |
| 20260510124158 | 18 | 157 | 4.8 | 12.9 | 0.00 | 0.00 | 0.00 | 80 | 1027.0 |
| 20260510123701 | 18 | 151 | 4.8 | 12.9 | 0.00 | 0.00 | 0.00 | 79 | 1027.2 |
| 20260510123425 | 19 | 107 | 4.8 | 12.9 | 0.00 | 0.00 | 0.00 | 78 | 1027.3 |
| 20260510122656 | 19 | 115 | 4.8 | 12.9 | 0.00 | 0.00 | 0.00 | 77 | 1027.2 |
| 20260510122157 | 19 | 114 | 6.4 | 14.5 | 0.00 | 0.00 | 0.00 | 76 | 1027.1 |
| 20260510121921 | 19 | 123 | 4.8 | 14.5 | 0.00 | 0.00 | 0.00 | 75 | 1027.2 |
| 20260510121158 | 19 | 129 | 3.2 | 8.0 | 0.00 | 0.00 | 0.00 | 74 | 1027.2 |
| 20260510120653 | 19 | 124 | 3.2 | 6.4 | 0.00 | 0.00 | 0.00 | 73 | 1027.2 |
| 20260510120153 | 19 | 121 | 3.2 | 8.0 | 0.00 | 0.00 | 0.00 | 74 | 1027.2 |
| 20260510115655 | 19 | 133 | 4.8 | 8.0 | 0.00 | 0.00 | 0.00 | 74 | 1027.2 |
| 20260510115158 | 19 | 127 | 3.2 | 8.0 | 0.00 | 0.00 | 0.00 | 74 | 1027.4 |
| 20260510114654 | 19 | 135 | 3.2 | 8.0 | 0.00 | 0.00 | 0.00 | 73 | 1027.5 |
| 20260510114159 | 19 | 180 | 3.2 | 8.0 | 0.00 | 0.00 | 0.00 | 73 | 1027.5 |
| 20260510113649 | 19 | 120 | 1.6 | 4.8 | 0.00 | 0.00 | 0.00 | 74 | 1027.5 |
| 20260510113200 | 19 | 120 | 1.6 | 4.8 | 0.00 | 0.00 | 0.00 | 74 | 1027.4 |
| 20260510112644 | 18 | 120 | 1.6 | 6.4 | 0.00 | 0.00 | 0.00 | 74 | 1027.5 |
| 20260510112143 | 18 | 120 | 1.6 | 6.4 | 0.00 | 0.00 | 0.00 | 75 | 1027.5 |
| 20260510111647 | 18 | 164 | 1.6 | 4.8 | 0.00 | 0.00 | 0.00 | 75 | 1027.5 |
| 20260510111151 | 18 | 164 | 1.6 | 6.4 | 0.00 | 0.00 | 0.00 | 75 | 1027.5 |
| 20260510110647 | 18 | 164 | 1.6 | 6.4 | 0.00 | 0.00 | 0.00 | 76 | 1027.4 |
| 20260510110149 | 18 | 124 | 1.6 | 4.8 | 0.00 | 0.00 | 0.00 | 76 | 1027.5 |
| 20260510105642 | 18 | 124 | 1.6 | 4.8 | 0.00 | 0.00 | 0.00 | 76 | 1027.3 |
| 20260510105135 | 18 | 124 | 3.2 | 4.8 | 0.00 | 0.00 | 0.00 | 76 | 1027.1 |
| 20260510104639 | 18 | 124 | 3.2 | 4.8 | 0.00 | 0.00 | 0.00 | 76 | 1026.9 |
| 20260510104130 | 18 | 124 | 3.2 | 6.4 | 0.00 | 0.00 | 0.00 | 76 | 1027.0 |
| 20260510103630 | 18 | 124 | 3.2 | 6.4 | 0.00 | 0.00 | 0.00 | 76 | 1026.9 |
| 20260510103135 | 18 | 124 | 3.2 | 4.8 | 0.00 | 0.00 | 0.00 | 76 | 1027.0 |
| 20260510102850 | 18 | 124 | 3.2 | 6.4 | 0.00 | 0.00 | 0.00 | 76 | 1026.9 |
| 20260510102135 | 18 | 124 | 1.6 | 6.4 | 0.00 | 0.00 | 0.00 | 76 | 1026.8 |
| 20260510101625 | 18 | 124 | 1.6 | 4.8 | 0.00 | 0.00 | 0.00 | 77 | 1026.8 |
| 20260510101127 | 18 | 124 | 3.2 | 8.0 | 0.00 | 0.00 | 0.00 | 77 | 1026.7 |
| 20260510100630 | 18 | 124 | 3.2 | 8.0 | 0.00 | 0.00 | 0.00 | 77 | 1026.7 |
| 20260510100124 | 18 | 124 | 3.2 | 8.0 | 0.00 | 0.00 | 0.00 | 77 | 1026.6 |
| 20260510095849 | 18 | 119 | 3.2 | 8.0 | 0.00 | 0.00 | 0.00 | 77 | 1026.6 |
| 20260510095126 | 18 | 120 | 3.2 | 8.0 | 0.00 | 0.00 | 0.00 | 77 | 1026.5 |
| 20260510094617 | 18 | 133 | 3.2 | 8.0 | 0.00 | 0.00 | 0.00 | 78 | 1026.5 |
| 20260510094116 | 18 | 125 | 3.2 | 6.4 | 0.00 | 0.00 | 0.00 | 78 | 1026.2 |
| 20260510093611 | 18 | 175 | 3.2 | 4.8 | 0.00 | 0.00 | 0.00 | 77 | 1026.2 |
| 20260510093115 | 18 | 175 | 3.2 | 6.4 | 0.00 | 0.00 | 0.00 | 77 | 1026.1 |
| 20260510092608 | 18 | 175 | 1.6 | 6.4 | 0.00 | 0.00 | 0.00 | 77 | 1026.1 |
| 20260510092107 | 19 | 175 | 1.6 | 3.2 | 0.00 | 0.00 | 0.00 | 77 | 1026.2 |
| 20260510091609 | 19 | 175 | 1.6 | 4.8 | 0.00 | 0.00 | 0.00 | 76 | 1026.2 |
| 20260510091110 | 19 | 175 | 1.6 | 6.4 | 0.00 | 0.00 | 0.00 | 76 | 1026.3 |
| 20260510090819 | 19 | 175 | 1.6 | 6.4 | 0.00 | 0.00 | 0.00 | 76 | 1026.4 |
| 20260510090109 | 19 | 175 | 1.6 | 4.8 | 0.00 | 0.00 | 0.00 | 76 | 1026.4 |
| 20260510085556 | 19 | 175 | 1.6 | 4.8 | 0.00 | 0.00 | 0.00 | 76 | 1026.3 |
| 20260510085040 | 19 | 175 | 1.6 | 4.8 | 0.00 | 0.00 | 0.00 | 76 | 1026.4 |
| 20260510084539 | 19 | 180 | 1.6 | 4.8 | 0.00 | 0.00 | 0.00 | 76 | 1026.3 |
| 20260510084317 | 19 | 180 | 1.6 | 4.8 | 0.00 | 0.00 | 0.00 | 75 | 1026.3 |
| 20260510083536 | 19 | 180 | 1.6 | 4.8 | 0.00 | 0.00 | 0.00 | 75 | 1026.3 |
| 20260510083303 | 20 | 180 | 3.2 | 4.8 | 0.00 | 0.00 | 0.00 | 75 | 1026.2 |
| 20260510082548 | 20 | 140 | 3.2 | 4.8 | 0.00 | 0.00 | 0.00 | 75 | 1025.8 |
| 20260510082035 | 20 | 143 | 3.2 | 4.8 | 0.00 | 0.00 | 0.00 | 75 | 1025.7 |
| 20260510081510 | 20 | 165 | 3.2 | 4.8 | 0.00 | 0.00 | 0.00 | 75 | 1025.8 |
| 20260510081011 | 20 | 164 | 1.6 | 6.4 | 0.00 | 0.00 | 0.00 | 75 | 1025.9 |
| 20260510080455 | 20 | 164 | 3.2 | 6.4 | 0.00 | 0.00 | 0.00 | 75 | 1025.7 |
| 20260510075954 | 20 | 175 | 3.2 | 8.0 | 0.00 | 0.00 | 0.00 | 75 | 1025.6 |
| 20260510075448 | 20 | 166 | 3.2 | 8.0 | 0.00 | 0.00 | 0.00 | 75 | 1025.7 |
| 20260510075215 | 20 | 216 | 3.2 | 8.0 | 0.00 | 0.00 | 0.00 | 74 | 1025.8 |
| 20260510074424 | 20 | 126 | 3.2 | 6.4 | 0.00 | 0.00 | 0.00 | 74 | 1025.6 |
| 20260510073927 | 20 | 162 | 3.2 | 6.4 | 0.00 | 0.00 | 0.00 | 74 | 1025.6 |
| 20260510073407 | 20 | 159 | 3.2 | 6.4 | 0.00 | 0.00 | 0.00 | 74 | 1025.6 |
| 20260510073136 | 20 | 164 | 3.2 | 8.0 | 0.00 | 0.00 | 0.00 | 74 | 1025.6 |
| 20260510072347 | 20 | 175 | 3.2 | 8.0 | 0.00 | 0.00 | 0.00 | 74 | 1025.4 |
| 20260510071816 | 20 | 175 | 3.2 | 12.9 | 0.00 | 0.00 | 0.00 | 74 | 1025.3 |
| 20260510071519 | 21 | 158 | 4.8 | 12.9 | 0.00 | 0.00 | 0.00 | 74 | 1025.2 |
| 20260510071028 | 21 | 108 | 3.2 | 12.9 | 0.00 | 0.00 | 0.00 | 73 | 1025.3 |
| 20260510070258 | 21 | 130 | 3.2 | 12.9 | 0.00 | 0.00 | 0.00 | 73 | 1025.3 |
| 20260510070024 | 21 | 151 | 4.8 | 12.9 | 0.00 | 0.00 | 0.00 | 72 | 1025.2 |
| 20260510065306 | 21 | 160 | 4.8 | 12.9 | 0.00 | 0.00 | 0.00 | 72 | 1025.1 |
| 20260510064754 | 21 | 191 | 4.8 | 9.7 | 0.00 | 0.00 | 0.00 | 72 | 1024.9 |
| 20260510064254 | 21 | 166 | 4.8 | 16.1 | 0.00 | 0.00 | 0.00 | 72 | 1024.8 |
| 20260510063752 | 21 | 122 | 6.4 | 16.1 | 0.00 | 0.00 | 0.00 | 71 | 1024.8 |
| 20260510063256 | 21 | 175 | 6.4 | 16.1 | 0.00 | 0.00 | 0.00 | 71 | 1024.9 |
| 20260510063233 | 21 | 113 | 4.8 | 16.1 | 0.00 | 0.00 | 0.00 | 70 | 1024.9 |
| 20260510062253 | 22 | 202 | 4.8 | 8.0 | 0.00 | 0.00 | 0.00 | 70 | 1024.9 |
| 20260510061747 | 22 | 166 | 4.8 | 11.3 | 0.00 | 0.00 | 0.00 | 70 | 1024.8 |
| 20260510061314 | 22 | 131 | 4.8 | 12.9 | 0.00 | 0.00 | 0.00 | 70 | 1024.7 |
| 20260510060732 | 22 | 99 | 4.8 | 14.5 | 0.00 | 0.00 | 0.00 | 70 | 1024.7 |
| 20260510060246 | 22 | 116 | 4.8 | 14.5 | 0.00 | 0.00 | 0.00 | 69 | 1024.6 |
| 20260510055736 | 22 | 122 | 4.8 | 16.1 | 0.00 | 0.00 | 0.00 | 69 | 1024.6 |
| 20260510055228 | 22 | 122 | 8.0 | 19.3 | 0.00 | 0.00 | 0.00 | 69 | 1024.6 |
| 20260510054732 | 22 | 101 | 8.0 | 19.3 | 0.00 | 0.00 | 0.00 | 69 | 1024.6 |
| 20260510054723 | 22 | 118 | 6.4 | 16.1 | 0.00 | 0.00 | 0.00 | 69 | 1024.5 |
| 20260510053727 | 22 | 121 | 6.4 | 16.1 | 0.00 | 0.00 | 0.00 | 69 | 1024.4 |
| 20260510053234 | 22 | 112 | 4.8 | 16.1 | 0.00 | 0.00 | 0.00 | 69 | 1024.4 |
| 20260510052707 | 23 | 118 | 4.8 | 12.9 | 0.00 | 0.00 | 0.00 | 69 | 1024.3 |
| 20260510052435 | 23 | 114 | 6.4 | 16.1 | 0.00 | 0.00 | 0.00 | 69 | 1024.4 |
| 20260510051923 | 23 | 145 | 8.0 | 16.1 | 0.00 | 0.00 | 0.00 | 68 | 1024.3 |
| 20260510051211 | 23 | 118 | 8.0 | 19.3 | 0.00 | 0.00 | 0.00 | 68 | 1024.4 |
| 20260510050703 | 23 | 118 | 8.0 | 19.3 | 0.00 | 0.00 | 0.00 | 67 | 1024.4 |
| 20260510050204 | 23 | 110 | 8.0 | 16.1 | 0.00 | 0.00 | 0.00 | 66 | 1024.5 |
| 20260510045703 | 23 | 120 | 6.4 | 16.1 | 0.00 | 0.00 | 0.00 | 67 | 1024.5 |
| 20260510045210 | 23 | 124 | 6.4 | 14.5 | 0.00 | 0.00 | 0.00 | 67 | 1024.6 |
| 20260510044654 | 23 | 122 | 8.0 | 14.5 | 0.00 | 0.00 | 0.00 | 66 | 1024.6 |
| 20260510044155 | 23 | 129 | 8.0 | 17.7 | 0.00 | 0.00 | 0.00 | 65 | 1024.5 |
| 20260510043636 | 23 | 124 | 6.4 | 17.7 | 0.00 | 0.00 | 0.00 | 65 | 1024.5 |
| 20260510043119 | 23 | 123 | 8.0 | 16.1 | 0.00 | 0.00 | 0.00 | 64 | 1024.4 |
| 20260510042558 | 24 | 185 | 8.0 | 19.3 | 0.00 | 0.00 | 0.00 | 64 | 1024.4 |
| 20260510042055 | 24 | 120 | 8.0 | 19.3 | 0.00 | 0.00 | 0.00 | 63 | 1024.4 |
| 20260510041815 | 24 | 124 | 8.0 | 19.3 | 0.00 | 0.00 | 0.00 | 62 | 1024.4 |
| 20260510041100 | 24 | 146 | 8.0 | 19.3 | 0.00 | 0.00 | 0.00 | 61 | 1024.4 |
| 20260510040537 | 25 | 137 | 6.4 | 17.7 | 0.00 | 0.00 | 0.00 | 61 | 1024.4 |
| 20260510040038 | 25 | 112 | 6.4 | 16.1 | 0.00 | 0.00 | 0.00 | 60 | 1024.4 |
| 20260510035533 | 25 | 123 | 6.4 | 16.1 | 0.00 | 0.00 | 0.00 | 59 | 1024.3 |
| 20260510035024 | 25 | 133 | 9.7 | 19.3 | 0.00 | 0.00 | 0.00 | 58 | 1024.3 |
| 20260510034531 | 25 | 134 | 8.0 | 19.3 | 0.00 | 0.00 | 0.00 | 57 | 1024.3 |
| 20260510034007 | 25 | 107 | 8.0 | 16.1 | 0.00 | 0.00 | 0.00 | 58 | 1024.4 |
| 20260510033946 | 25 | 191 | 6.4 | 16.1 | 0.00 | 0.00 | 0.00 | 59 | 1024.3 |
| 20260510032958 | 25 | 101 | 6.4 | 17.7 | 0.00 | 0.00 | 0.00 | 59 | 1024.3 |
| 20260510032731 | 25 | 226 | 6.4 | 16.1 | 0.00 | 0.00 | 0.00 | 59 | 1024.2 |
| 20260510031939 | 25 | 135 | 6.4 | 19.3 | 0.00 | 0.00 | 0.00 | 59 | 1024.4 |
| 20260510031448 | 25 | 120 | 8.0 | 17.7 | 0.00 | 0.00 | 0.00 | 61 | 1024.3 |
| 20260510030945 | 25 | 212 | 8.0 | 17.7 | 0.00 | 0.00 | 0.00 | 60 | 1024.3 |
| 20260510030436 | 25 | 122 | 8.0 | 20.9 | 0.00 | 0.00 | 0.00 | 60 | 1024.3 |
| 20260510030148 | 25 | 191 | 8.0 | 20.9 | 0.00 | 0.00 | 0.00 | 61 | 1024.4 |
| 20260510025434 | 25 | 133 | 9.7 | 20.9 | 0.00 | 0.00 | 0.00 | 60 | 1024.4 |
| 20260510024912 | 25 | 126 | 9.7 | 20.9 | 0.00 | 0.00 | 0.00 | 60 | 1024.4 |
| 20260510024352 | 25 | 118 | 8.0 | 20.9 | 0.00 | 0.00 | 0.00 | 59 | 1024.5 |
| 20260510023847 | 25 | 193 | 8.0 | 19.3 | 0.00 | 0.00 | 0.00 | 60 | 1024.5 |
| 20260510023326 | 25 | 75 | 6.4 | 19.3 | 0.00 | 0.00 | 0.00 | 60 | 1024.5 |
| 20260510022850 | 25 | 124 | 6.4 | 19.3 | 0.00 | 0.00 | 0.00 | 60 | 1024.6 |
| 20260510022533 | 25 | 133 | 6.4 | 17.7 | 0.00 | 0.00 | 0.00 | 60 | 1024.7 |
| 20260510021741 | 25 | 102 | 6.4 | 17.7 | 0.00 | 0.00 | 0.00 | 63 | 1024.7 |
| 20260510021239 | 25 | 204 | 8.0 | 22.5 | 0.00 | 0.00 | 0.00 | 62 | 1024.7 |
| 20260510020752 | 25 | 106 | 8.0 | 22.5 | 0.00 | 0.00 | 0.00 | 62 | 1024.8 |
| 20260510020237 | 25 | 175 | 8.0 | 19.3 | 0.00 | 0.00 | 0.00 | 63 | 1024.9 |
| 20260510015744 | 25 | 110 | 8.0 | 20.9 | 0.00 | 0.00 | 0.00 | 62 | 1025.0 |
| 20260510015456 | 24 | 118 | 6.4 | 20.9 | 0.00 | 0.00 | 0.00 | 62 | 1025.2 |
| 20260510015227 | 24 | 142 | 6.4 | 16.1 | 0.00 | 0.00 | 0.00 | 63 | 1025.3 |
| 20260510014240 | 23 | 163 | 6.4 | 14.5 | 0.00 | 0.00 | 0.00 | 65 | 1025.4 |
| 20260510013750 | 23 | 141 | 6.4 | 16.1 | 0.00 | 0.00 | 0.00 | 66 | 1025.6 |
| 20260510013233 | 23 | 118 | 6.4 | 16.1 | 0.00 | 0.00 | 0.00 | 65 | 1025.7 |
| 20260510012741 | 23 | 109 | 4.8 | 12.9 | 0.00 | 0.00 | 0.00 | 66 | 1025.7 |
| 20260510012218 | 23 | 145 | 6.4 | 14.5 | 0.00 | 0.00 | 0.00 | 65 | 1025.7 |
| 20260510011730 | 23 | 133 | 4.8 | 14.5 | 0.00 | 0.00 | 0.00 | 65 | 1025.7 |
| 20260510011201 | 23 | 137 | 4.8 | 9.7 | 0.00 | 0.00 | 0.00 | 66 | 1025.8 |
| 20260510010923 | 23 | 132 | 6.4 | 16.1 | 0.00 | 0.00 | 0.00 | 65 | 1025.9 |
| 20260510010149 | 23 | 180 | 6.4 | 16.1 | 0.00 | 0.00 | 0.00 | 66 | 1026.0 |
| 20260510005652 | 23 | 192 | 4.8 | 14.5 | 0.00 | 0.00 | 0.00 | 66 | 1026.1 |
| 20260510005151 | 23 | 202 | 4.8 | 14.5 | 0.00 | 0.00 | 0.00 | 66 | 1026.1 |
| 20260510004857 | 23 | 163 | 6.4 | 14.5 | 0.00 | 0.00 | 0.00 | 66 | 1026.1 |
| 20260510004058 | 23 | 249 | 4.8 | 14.5 | 0.00 | 0.00 | 0.00 | 65 | 1026.1 |
| 20260510003556 | 23 | 207 | 4.8 | 11.3 | 0.00 | 0.00 | 0.00 | 66 | 1026.4 |
| 20260510003051 | 23 | 166 | 4.8 | 11.3 | 0.00 | 0.00 | 0.00 | 66 | 1026.4 |
| 20260510002555 | 23 | 215 | 4.8 | 11.3 | 0.00 | 0.00 | 0.00 | 66 | 1026.5 |
| 20260510002050 | 23 | 116 | 4.8 | 11.3 | 0.00 | 0.00 | 0.00 | 66 | 1026.4 |
| 20260510001558 | 23 | 180 | 6.4 | 14.5 | 0.00 | 0.00 | 0.00 | 67 | 1026.5 |
| 20260510001050 | 23 | 241 | 4.8 | 14.5 | 0.00 | 0.00 | 0.00 | 67 | 1026.5 |
| 20260510000550 | 23 | 226 | 3.2 | 9.7 | 0.00 | 0.00 | 0.00 | 68 | 1026.5 |
| 20260510000105 | 22 | 190 | 3.2 | 9.7 | 0.00 | 0.00 | 0.00 | 68 | 1026.5 |
| 20260509235546 | 22 | 205 | 3.2 | 8.0 | 0.00 | 0.00 | 0.00 | 69 | 1026.5 |
| 20260509235044 | 22 | 175 | 3.2 | 8.0 | 0.00 | 0.00 | 0.00 | 69 | 1026.4 |
| 20260509234808 | 22 | 250 | 3.2 | 8.0 | 0.00 | 0.00 | 0.00 | 70 | 1026.4 |
| 20260509234043 | 21 | 225 | 1.6 | 6.4 | 0.00 | 0.00 | 0.00 | 70 | 1026.4 |
| 20260509233553 | 21 | 226 | 3.2 | 6.4 | 0.00 | 0.00 | 0.00 | 72 | 1026.5 |
| 20260509233030 | 21 | 226 | 3.2 | 8.0 | 0.00 | 0.00 | 0.00 | 73 | 1026.5 |
| 20260509232526 | 20 | 246 | 3.2 | 8.0 | 0.00 | 0.00 | 0.00 | 73 | 1026.5 |
| 20260509232027 | 20 | 166 | 4.8 | 9.7 | 0.00 | 0.00 | 0.00 | 75 | 1026.4 |
| 20260509231513 | 19 | 195 | 3.2 | 9.7 | 0.00 | 0.00 | 0.00 | 75 | 1026.3 |
| 20260509231019 | 19 | 239 | 3.2 | 9.7 | 0.00 | 0.00 | 0.00 | 76 | 1026.2 |
| 20260509230748 | 18 | 219 | 4.8 | 9.7 | 0.00 | 0.00 | 0.00 | 76 | 1026.1 |
| 20260509230010 | 18 | 175 | 4.8 | 8.0 | 0.00 | 0.00 | 0.00 | 77 | 1026.2 |
| 20260509225515 | 18 | 195 | 3.2 | 8.0 | 0.00 | 0.00 | 0.00 | 78 | 1026.1 |
| 20260509225022 | 17 | 218 | 3.2 | 9.7 | 0.00 | 0.00 | 0.00 | 78 | 1026.2 |
| 20260509224501 | 17 | 219 | 3.2 | 9.7 | 0.00 | 0.00 | 0.00 | 80 | 1026.2 |
| 20260509224005 | 17 | 199 | 1.6 | 6.4 | 0.00 | 0.00 | 0.00 | 80 | 1026.0 |
| 20260509223451 | 16 | 206 | 1.6 | 8.0 | 0.00 | 0.00 | 0.00 | 81 | 1026.0 |
| 20260509222957 | 16 | 206 | 3.2 | 8.0 | 0.00 | 0.00 | 0.00 | 81 | 1026.0 |
| 20260509222451 | 16 | 229 | 3.2 | 8.0 | 0.00 | 0.00 | 0.00 | 81 | 1025.9 |
| 20260509221953 | 16 | 234 | 3.2 | 8.0 | 0.00 | 0.00 | 0.00 | 82 | 1025.8 |
| 20260509221451 | 15 | 221 | 3.2 | 8.0 | 0.00 | 0.00 | 0.00 | 83 | 1025.7 |
| 20260509220957 | 15 | 222 | 3.2 | 8.0 | 0.00 | 0.00 | 0.00 | 84 | 1025.7 |
| 20260509220456 | 15 | 251 | 3.2 | 8.0 | 0.00 | 0.00 | 0.00 | 84 | 1025.7 |
| 20260509215949 | 14 | 212 | 1.6 | 8.0 | 0.00 | 0.00 | 0.00 | 85 | 1025.7 |
| 20260509215711 | 14 | 185 | 3.2 | 8.0 | 0.00 | 0.00 | 0.00 | 85 | 1025.8 |
| 20260509214952 | 13 | 189 | 3.2 | 8.0 | 0.00 | 0.00 | 0.00 | 85 | 1025.7 |
| 20260509214450 | 13 | 224 | 3.2 | 8.0 | 0.00 | 0.00 | 0.00 | 85 | 1025.8 |
| 20260509213945 | 13 | 249 | 1.6 | 6.4 | 0.00 | 0.00 | 0.00 | 85 | 1025.8 |
| 20260509213501 | 13 | 217 | 1.6 | 6.4 | 0.00 | 0.00 | 0.00 | 85 | 1025.7 |
| 20260509212938 | 13 | 219 | 3.2 | 8.0 | 0.00 | 0.00 | 0.00 | 85 | 1025.6 |
| 20260509212433 | 13 | 248 | 3.2 | 8.0 | 0.00 | 0.00 | 0.00 | 85 | 1025.5 |
| 20260509211934 | 12 | 224 | 1.6 | 4.8 | 0.00 | 0.00 | 0.00 | 85 | 1025.4 |
| 20260509211433 | 12 | 224 | 1.6 | 6.4 | 0.00 | 0.00 | 0.00 | 85 | 1025.3 |
| 20260509211124 | 12 | 218 | 1.6 | 6.4 | 0.00 | 0.00 | 0.00 | 85 | 1025.2 |
| 20260509210408 | 12 | 244 | 1.6 | 6.4 | 0.00 | 0.00 | 0.00 | 85 | 1025.1 |
| 20260509205850 | 12 | 244 | 1.6 | 6.4 | 0.00 | 0.00 | 0.00 | 85 | 1024.9 |
| 20260509205343 | 12 | 246 | 1.6 | 6.4 | 0.00 | 0.00 | 0.00 | 85 | 1024.8 |
| 20260509204911 | 12 | 195 | 0.0 | 4.8 | 0.00 | 0.00 | 0.00 | 84 | 1024.8 |
| 20260509204601 | 12 | 195 | 0.0 | 4.8 | 0.00 | 0.00 | 0.00 | 84 | 1024.8 |
| 20260509203826 | 12 | 195 | 1.6 | 4.8 | 0.00 | 0.00 | 0.00 | 84 | 1024.7 |
| 20260509203307 | 12 | 195 | 1.6 | 4.8 | 0.00 | 0.00 | 0.00 | 84 | 1024.6 |
| 20260509202812 | 12 | 195 | 1.6 | 4.8 | 0.00 | 0.00 | 0.00 | 84 | 1024.6 |
| 20260509202307 | 12 | 195 | 1.6 | 3.2 | 0.00 | 0.00 | 0.00 | 84 | 1024.6 |
| 20260509202036 | 12 | 195 | 1.6 | 4.8 | 0.00 | 0.00 | 0.00 | 84 | 1024.5 |
| 20260509201305 | 12 | 195 | 1.6 | 8.0 | 0.00 | 0.00 | 0.00 | 84 | 1024.5 |
| 20260509201035 | 12 | 195 | 1.6 | 8.0 | 0.00 | 0.00 | 0.00 | 84 | 1024.4 |
| 20260509200316 | 12 | 195 | 3.2 | 8.0 | 0.00 | 0.00 | 0.00 | 84 | 1024.5 |
| 20260509195818 | 12 | 191 | 3.2 | 8.0 | 0.00 | 0.00 | 0.00 | 84 | 1024.5 |
| 20260509195246 | 12 | 185 | 3.2 | 6.4 | 0.00 | 0.00 | 0.00 | 84 | 1024.4 |
| 20260509195231 | 12 | 216 | 3.2 | 6.4 | 0.00 | 0.00 | 0.00 | 84 | 1024.3 |
| 20260509194223 | 12 | 198 | 1.6 | 6.4 | 0.00 | 0.00 | 0.00 | 84 | 1024.3 |
| 20260509193655 | 12 | 198 | 1.6 | 6.4 | 0.00 | 0.00 | 0.00 | 84 | 1024.3 |
| 20260509193214 | 12 | 198 | 1.6 | 6.4 | 0.00 | 0.00 | 0.00 | 84 | 1024.3 |
| 20260509192643 | 12 | 198 | 1.6 | 4.8 | 0.00 | 0.00 | 0.00 | 84 | 1024.2 |
| 20260509192137 | 12 | 198 | 1.6 | 4.8 | 0.00 | 0.00 | 0.00 | 84 | 1024.1 |
| 20260509191605 | 12 | 198 | 1.6 | 4.8 | 0.00 | 0.00 | 0.00 | 84 | 1024.1 |
| 20260509191111 | 12 | 199 | 1.6 | 6.4 | 0.00 | 0.00 | 0.00 | 84 | 1024.0 |
| 20260509190600 | 12 | 197 | 1.6 | 6.4 | 0.00 | 0.00 | 0.00 | 84 | 1024.0 |
| 20260509190323 | 12 | 166 | 3.2 | 6.4 | 0.00 | 0.00 | 0.00 | 84 | 1024.0 |
| 20260509185555 | 12 | 189 | 3.2 | 6.4 | 0.00 | 0.00 | 0.00 | 85 | 1024.0 |
| 20260509185053 | 12 | 189 | 1.6 | 6.4 | 0.00 | 0.00 | 0.00 | 85 | 1023.9 |